FW0252 Weather Reports


Display with metric or nautical units.
time (UTC)temp
F
wind
direction
speed
MPH
gust
MPH
rain 1hr
in
rain 24hr
in
rain mn
in
humidity
%
barometer
mb
20260503025043 73 132 0.0 4.0 0.19 0.33 0.33 91 1011.2
20260503024542 73 155 0.0 5.0 0.19 0.33 0.33 91 1011.8
20260503024042 73 113 0.0 4.0 0.19 0.33 0.33 90 1011.5
20260503023541 73 113 0.0 5.0 0.18 0.32 0.32 90 1011.2
20260503023042 73 151 1.0 5.0 0.18 0.31 0.31 90 1011.8
20260503022541 74 215 0.0 3.0 0.15 0.28 0.28 90 1012.6
20260503022043 74 217 0.0 3.0 0.05 0.18 0.18 91 1012.5
20260503021542 74 225 0.0 2.0 0.01 0.14 0.14 91 1012.6
20260503021039 74 301 0.0 1.0 0.01 0.14 0.14 91 1012.3
20260503020539 74 301 0.0 2.0 0.01 0.14 0.14 91 1011.9
20260503020039 74 301 0.0 2.0 0.02 0.14 0.14 91 1011.9
20260503015537 74 301 0.0 2.0 0.02 0.14 0.14 91 1011.8
20260503015036 74 301 0.0 0.0 0.02 0.14 0.14 91 1011.6
20260503014536 74 301 0.0 0.0 0.02 0.14 0.14 91 1011.4
20260503014036 74 301 0.0 0.0 0.02 0.14 0.14 91 1011.4
20260503013536 74 301 0.0 0.0 0.02 0.14 0.14 91 1011.5
20260503013036 74 302 0.0 0.0 0.01 0.13 0.13 91 1011.4
20260503012535 74 302 0.0 0.0 0.01 0.13 0.13 91 1011.6
20260503012035 75 301 0.0 0.0 0.01 0.13 0.13 91 1011.8
20260503011535 75 301 0.0 0.0 0.01 0.13 0.13 91 1011.6
20260503011035 75 301 0.0 0.0 0.01 0.13 0.13 91 1011.5
20260503010535 75 301 0.0 0.0 0.01 0.13 0.13 91 1011.6
20260503010037 75 301 0.0 2.0 0.00 0.12 0.12 91 1011.5
20260503005535 75 301 0.0 2.0 0.00 0.12 0.12 91 1011.5
20260503005034 75 301 0.0 0.0 0.00 0.12 0.12 91 1011.5
20260503004533 75 301 0.0 0.0 0.00 0.12 0.12 91 1011.3
20260503004033 75 302 0.0 0.0 0.00 0.12 0.12 91 1011.3
20260503003532 75 301 0.0 0.0 0.00 0.12 0.12 91 1011.3
20260503003036 74 302 0.0 0.0 0.00 0.12 0.12 91 1011.3
20260503002532 74 301 0.0 0.0 0.00 0.12 0.12 91 1011.3
20260503002032 74 302 0.0 0.0 0.00 0.12 0.12 91 1011.4
20260503001532 74 301 0.0 2.0 0.00 0.12 0.12 91 1011.3
20260503001032 74 302 0.0 2.0 0.00 0.12 0.12 91 1011.3
20260503000531 74 302 0.0 2.0 0.01 0.12 0.12 91 1011.2
20260503000033 74 302 0.0 0.0 0.02 0.12 0.12 91 1011.2
20260502235531 74 302 0.0 2.0 0.12 0.12 0.12 91 1011.2
20260502235031 74 302 0.0 2.0 0.12 0.12 0.12 90 1011.3
20260502234546 74 302 0.0 0.0 0.12 0.12 0.12 90 1011.2
20260502234031 74 301 0.0 0.0 0.12 0.12 0.12 90 1011.3
20260502233531 74 302 0.0 4.0 0.12 0.12 0.12 90 1011.1
20260502233030 74 9 0.0 0.0 0.12 0.12 0.12 90 1011.3
20260502232529 74 9 0.0 1.0 0.12 0.12 0.12 90 1011.1
20260502232029 74 9 0.0 3.0 0.12 0.12 0.12 89 1011.1
20260502231529 74 9 0.0 3.0 0.12 0.12 0.12 88 1011.0
20260502231030 75 18 0.0 3.0 0.12 0.12 0.12 87 1011.2
20260502230530 75 19 0.0 7.0 0.11 0.11 0.11 86 1011.1
20260502230030 76 44 1.0 12.0 0.10 0.10 0.10 83 1011.2
20260502225528 78 326 3.0 12.0 0.00 0.00 0.00 78 1011.0
20260502225027 81 42 2.0 13.0 0.00 0.00 0.00 74 1011.0
20260502224527 83 31 4.0 13.0 0.00 0.00 0.00 80 1010.6
20260502224027 83 271 3.0 8.0 0.00 0.00 0.00 79 1009.9
20260502223527 84 205 2.0 10.0 0.00 0.00 0.00 79 1009.9
20260502223027 84 215 3.0 10.0 0.00 0.00 0.00 79 1009.7
20260502222526 83 117 3.0 9.0 0.00 0.00 0.00 80 1009.6
20260502222025 83 198 1.0 8.0 0.00 0.00 0.00 80 1009.7
20260502221526 83 156 2.0 10.0 0.00 0.00 0.00 80 1009.8
20260502221027 83 204 4.0 10.0 0.00 0.00 0.00 79 1009.7
20260502220526 83 184 4.0 11.0 0.00 0.00 0.00 79 1009.8
20260502220026 84 157 5.0 11.0 0.00 0.00 0.00 79 1009.8
20260502215527 84 246 4.0 14.0 0.00 0.00 0.00 79 1009.8
20260502215026 84 230 2.0 9.0 0.00 0.00 0.00 78 1009.8
20260502214538 84 194 3.0 8.0 0.00 0.00 0.00 77 1009.8
20260502214025 84 244 2.0 8.0 0.00 0.00 0.00 76 1009.7
20260502213525 85 221 2.0 12.0 0.00 0.00 0.00 76 1009.6
20260502213025 85 204 3.0 12.0 0.00 0.00 0.00 75 1009.4
20260502212524 85 222 3.0 11.0 0.00 0.00 0.00 75 1009.4
20260502212023 86 198 3.0 8.0 0.00 0.00 0.00 74 1009.4
20260502211532 86 188 1.0 9.0 0.00 0.00 0.00 73 1009.3
20260502211024 86 199 3.0 11.0 0.00 0.00 0.00 72 1009.2
20260502210524 87 285 3.0 10.0 0.00 0.00 0.00 71 1009.2
20260502210026 88 213 2.0 10.0 0.00 0.00 0.00 71 1009.3
20260502205525 89 280 1.0 10.0 0.00 0.00 0.00 70 1009.4
20260502205024 88 193 2.0 10.0 0.00 0.00 0.00 70 1009.2
20260502204524 88 201 2.0 8.0 0.00 0.00 0.00 70 1009.3
20260502204024 88 199 3.0 11.0 0.00 0.00 0.00 71 1009.2
20260502203523 89 134 2.0 11.0 0.00 0.00 0.00 70 1009.2
20260502203023 88 234 3.0 9.0 0.00 0.00 0.00 69 1009.1
20260502202522 89 258 3.0 10.0 0.00 0.00 0.00 67 1009.1
20260502202022 89 175 2.0 9.0 0.00 0.00 0.00 67 1009.3
20260502201522 89 190 2.0 12.0 0.00 0.00 0.00 67 1009.2
20260502201023 89 225 4.0 12.0 0.00 0.00 0.00 66 1009.2
20260502200521 89 198 3.0 10.0 0.00 0.00 0.00 66 1009.1
20260502200022 89 218 3.0 9.0 0.00 0.00 0.00 65 1008.9
20260502195521 90 206 4.0 9.0 0.00 0.00 0.00 64 1008.9
20260502195021 90 166 3.0 9.0 0.00 0.00 0.00 63 1009.0
20260502194520 90 216 2.0 9.0 0.00 0.00 0.00 65 1009.1
20260502194020 90 204 2.0 10.0 0.00 0.00 0.00 63 1009.2
20260502193521 90 230 2.0 11.0 0.00 0.00 0.00 64 1009.2
20260502193019 90 173 3.0 11.0 0.00 0.00 0.00 65 1009.2
20260502192519 90 159 3.0 8.0 0.00 0.00 0.00 64 1009.3
20260502192022 90 202 5.0 10.0 0.00 0.00 0.00 62 1009.5
20260502191521 90 187 2.0 8.0 0.00 0.00 0.00 66 1009.6
20260502191017 90 190 3.0 6.0 0.00 0.00 0.00 66 1009.7
20260502190516 89 205 2.0 10.0 0.00 0.00 0.00 69 1009.8
20260502190016 89 196 2.0 14.0 0.00 0.00 0.00 69 1009.9
20260502185515 89 238 4.0 14.0 0.00 0.00 0.00 68 1009.9
20260502185015 89 209 3.0 8.0 0.00 0.00 0.00 67 1009.9
20260502184515 89 202 4.0 8.0 0.00 0.00 0.00 69 1010.1
20260502184014 89 193 2.0 9.0 0.00 0.00 0.00 70 1010.1
20260502183513 89 279 2.0 9.0 0.00 0.00 0.00 70 1010.1
20260502183013 89 155 2.0 10.0 0.00 0.00 0.00 71 1010.2
20260502182515 88 168 3.0 14.0 0.00 0.00 0.00 72 1010.2
20260502182012 88 204 4.0 14.0 0.00 0.00 0.00 72 1010.3
20260502181511 88 232 4.0 10.0 0.00 0.00 0.00 71 1010.2
20260502181011 88 162 4.0 12.0 0.00 0.00 0.00 72 1010.3
20260502180512 87 196 5.0 15.0 0.00 0.00 0.00 72 1010.2
20260502170508 89 187 2.0 8.0 0.00 0.00 0.00 72 1010.5
20260502164005 87 155 4.0 13.0 0.00 0.00 0.00 74 1010.6
20260502163505 87 275 2.0 10.0 0.00 0.00 0.00 74 1010.6
20260502163005 87 223 3.0 11.0 0.00 0.00 0.00 75 1010.5
20260502162503 87 192 4.0 11.0 0.00 0.00 0.00 74 1010.5
20260502162002 87 210 2.0 11.0 0.00 0.00 0.00 76 1010.5
20260502161502 87 197 4.0 11.0 0.00 0.00 0.00 74 1010.6
20260502161003 87 157 3.0 12.0 0.00 0.00 0.00 75 1010.5
20260502160501 87 194 5.0 15.0 0.00 0.00 0.00 74 1010.5
20260502152100 86 201 3.0 10.0 0.00 0.00 0.00 75 1010.2
20260502151558 86 190 3.0 10.0 0.00 0.00 0.00 76 1010.2
20260502151056 86 211 3.0 10.0 0.00 0.00 0.00 76 1010.2
20260502150554 86 219 3.0 10.0 0.00 0.00 0.00 76 1010.2
20260502130542 81 173 1.0 5.0 0.00 0.00 0.00 85 1009.6
20260502123532 77 103 0.0 3.0 0.00 0.00 0.00 88 1009.6
20260502123031 76 102 0.0 3.0 0.00 0.00 0.00 89 1009.6
20260502122527 76 101 0.0 2.0 0.00 0.00 0.00 89 1009.4
20260502122025 75 101 0.0 2.0 0.00 0.00 0.00 89 1009.4
20260502121536 75 102 0.0 2.0 0.00 0.00 0.00 90 1009.4
20260502121023 74 101 0.0 2.0 0.00 0.00 0.00 90 1009.5
20260502120522 74 101 0.0 3.0 0.00 0.00 0.00 90 1009.5
20260502115519 73 101 0.0 3.0 0.00 0.00 0.00 90 1009.3
20260502115018 73 101 0.0 3.0 0.00 0.00 0.00 90 1009.3
20260502114518 73 101 0.0 3.0 0.00 0.00 0.00 90 1009.4
20260502114017 73 101 0.0 3.0 0.00 0.00 0.00 90 1009.4
20260502113517 73 101 0.0 3.0 0.00 0.00 0.00 90 1009.3
20260502113018 72 101 0.0 2.0 0.00 0.00 0.00 90 1009.3
20260502112516 72 101 0.0 1.0 0.00 0.00 0.00 90 1009.4
20260502112017 72 101 0.0 0.0 0.00 0.00 0.00 90 1009.5
20260502111517 72 101 0.0 0.0 0.00 0.00 0.00 90 1009.4
20260502111016 72 101 0.0 0.0 0.00 0.00 0.00 90 1009.4
20260502110516 72 101 0.0 0.0 0.00 0.00 0.00 90 1009.4
20260502110019 72 101 0.0 0.0 0.00 0.00 0.00 91 1009.4
20260502105516 72 101 0.0 0.0 0.00 0.00 0.00 91 1009.4
20260502105016 72 101 0.0 2.0 0.00 0.00 0.00 91 1009.4
20260502104515 72 101 0.0 2.0 0.00 0.00 0.00 91 1009.4
20260502104017 72 101 0.0 0.0 0.00 0.00 0.00 91 1009.4
20260502103515 72 101 0.0 0.0 0.00 0.00 0.00 91 1009.3
20260502103019 72 101 0.0 0.0 0.00 0.00 0.00 91 1009.3
20260502102514 72 101 0.0 0.0 0.00 0.00 0.00 91 1009.2
20260502102014 71 101 0.0 0.0 0.00 0.00 0.00 90 1009.3
20260502101514 71 101 0.0 0.0 0.00 0.00 0.00 90 1009.3
20260502101012 71 101 0.0 0.0 0.00 0.00 0.00 90 1009.4
20260502100512 71 101 0.0 0.0 0.00 0.00 0.00 90 1009.4
20260502091510 71 101 0.0 2.0 0.00 0.00 0.00 89 1009.6
20260502091009 71 101 0.0 0.0 0.00 0.00 0.00 89 1009.7
20260502090508 71 101 0.0 0.0 0.00 0.00 0.00 89 1009.6
20260502071505 70 213 0.0 0.0 0.00 0.00 0.00 88 1009.8
20260502071004 70 213 0.0 0.0 0.00 0.00 0.00 88 1009.8
20260502070504 70 213 0.0 0.0 0.00 0.00 0.00 88 1009.8
20260502070010 70 213 0.0 0.0 0.00 0.00 0.00 88 1009.7
20260502065505 70 213 0.0 0.0 0.00 0.00 0.00 88 1009.7
20260502065007 70 213 0.0 0.0 0.00 0.00 0.00 88 1009.7
20260502064505 70 213 0.0 0.0 0.00 0.00 0.00 88 1009.7
20260502064004 70 213 0.0 0.0 0.00 0.00 0.00 88 1009.6
20260502063503 70 213 0.0 0.0 0.00 0.00 0.00 88 1009.6
20260502063006 70 213 0.0 0.0 0.00 0.00 0.00 87 1009.7
20260502062503 70 213 0.0 0.0 0.00 0.00 0.00 87 1009.6
20260502062001 70 213 0.0 0.0 0.00 0.00 0.00 87 1009.7
20260502061502 70 213 0.0 0.0 0.00 0.00 0.00 87 1009.7
20260502061001 71 213 0.0 0.0 0.00 0.00 0.00 87 1009.7
20260502060502 71 213 0.0 0.0 0.00 0.00 0.00 87 1009.8
20260502060001 71 213 0.0 0.0 0.00 0.00 0.00 87 1009.8
20260502055602 71 213 0.0 0.0 0.00 0.00 0.00 87 1009.8
20260502055101 71 213 0.0 0.0 0.00 0.00 0.00 87 1009.9
20260502054604 71 213 0.0 0.0 0.00 0.00 0.00 87 1010.0
20260502054058 71 213 0.0 0.0 0.00 0.00 0.00 87 1010.0
20260502053558 71 213 0.0 0.0 0.00 0.00 0.00 86 1010.1
20260502053059 71 213 0.0 0.0 0.00 0.00 0.00 86 1010.1
20260502052557 71 213 0.0 0.0 0.00 0.00 0.00 86 1010.1
20260502052100 71 213 0.0 0.0 0.00 0.00 0.00 86 1010.2
20260502051556 71 213 0.0 0.0 0.00 0.00 0.00 85 1010.3
20260502051056 71 213 0.0 0.0 0.00 0.00 0.00 86 1010.3
20260502050554 71 213 0.0 0.0 0.00 0.00 0.00 85 1010.3
20260502050054 71 213 0.0 0.0 0.00 0.00 0.00 85 1010.3
20260502045556 71 213 0.0 0.0 0.00 0.00 0.00 85 1010.3
20260502045053 72 213 0.0 0.0 0.00 0.00 0.00 85 1010.2
20260502044554 72 213 0.0 0.0 0.00 0.00 0.00 85 1010.2
20260502044052 72 213 0.0 0.0 0.00 0.00 0.00 85 1010.3
20260502043552 72 213 0.0 0.0 0.00 0.00 0.00 85 1010.3
20260502043056 72 213 0.0 0.0 0.00 0.00 0.00 84 1010.2
20260502042551 72 213 0.0 0.0 0.00 0.00 0.00 84 1010.3
20260502042050 72 213 0.0 0.0 0.00 0.00 0.00 83 1010.3
20260502041550 73 213 0.0 0.0 0.00 0.00 0.00 83 1010.2
20260502041048 73 213 0.0 0.0 0.00 0.00 0.00 83 1010.2
20260502040547 73 213 0.0 0.0 0.00 0.00 0.00 83 1010.2
20260502040046 73 213 0.0 0.0 0.00 0.00 0.00 82 1010.2
20260502035549 73 213 0.0 0.0 0.00 0.00 0.00 82 1010.2
20260502035046 74 213 0.0 0.0 0.00 0.00 0.00 82 1010.3
20260502034546 74 213 0.0 0.0 0.00 0.00 0.00 81 1010.3
20260502034046 74 213 0.0 0.0 0.00 0.00 0.00 81 1010.3
20260502033545 74 213 0.0 0.0 0.00 0.00 0.00 81 1010.3
20260502033048 75 213 0.0 0.0 0.00 0.00 0.00 80 1010.3
20260502032545 75 213 0.0 0.0 0.00 0.00 0.00 80 1010.4
20260502032045 75 213 0.0 0.0 0.00 0.00 0.00 80 1010.4
20260502031545 75 213 0.0 0.0 0.00 0.00 0.00 79 1010.4
20260502031045 75 213 0.0 0.0 0.00 0.00 0.00 79 1010.5
20260502030545 76 213 0.0 0.0 0.00 0.00 0.00 79 1010.5
20260502030045 76 213 0.0 0.0 0.00 0.00 0.00 78 1010.5
20260502025544 76 213 0.0 0.0 0.00 0.00 0.00 77 1010.5